date,time,SUV Intensity [MED/Hr],UV Index,Daily total [MED],Since Last [MED]
03/10/2022,00:01:04,0.001,0.0,0.0,0.0
03/10/2022,00:02:04,0.000,0.0,0.0,0.0
03/10/2022,00:03:04,0.001,0.0,0.0,0.0
03/10/2022,00:04:04,0.000,0.0,0.0,0.0
03/10/2022,00:05:04,0.001,0.0,0.0,0.0
03/10/2022,00:06:04,-0.001,0.0,0.0,0.0
03/10/2022,00:07:04,0.000,0.0,0.0,0.0
03/10/2022,00:08:03,0.000,0.0,0.0,0.0
03/10/2022,00:09:04,0.000,0.0,0.0,0.0
03/10/2022,00:10:05,0.000,0.0,0.0,0.0
03/10/2022,00:11:04,-0.000,0.0,0.0,0.0
03/10/2022,00:12:04,0.000,0.0,0.0,0.0
03/10/2022,00:13:03,0.000,0.0,0.0,0.0
03/10/2022,00:14:04,-0.000,0.0,0.0,0.0
03/10/2022,00:15:04,-0.002,0.0,0.0,0.0
03/10/2022,00:16:04,-0.001,0.0,0.0,0.0
03/10/2022,00:17:04,0.000,0.0,0.0,0.0
03/10/2022,00:18:04,0.000,0.0,0.0,0.0
03/10/2022,00:19:01,0.001,0.0,0.0,0.0
03/10/2022,00:20:04,-0.000,0.0,0.0,0.0
03/10/2022,00:21:04,0.000,0.0,0.0,0.0
03/10/2022,00:22:04,0.001,0.0,0.0,0.0
03/10/2022,00:23:04,0.000,0.0,0.0,0.0
03/10/2022,00:24:04,0.000,0.0,0.0,0.0
03/10/2022,00:25:04,0.001,0.0,0.0,0.0
03/10/2022,00:26:04,0.000,0.0,0.0,0.0
03/10/2022,00:27:04,0.000,0.0,0.0,0.0
03/10/2022,00:28:04,0.000,0.0,0.0,0.0
03/10/2022,00:29:04,0.001,0.0,0.0,0.0
03/10/2022,00:30:04,0.000,0.0,0.0,0.0
03/10/2022,00:31:04,0.000,0.0,0.0,0.0
03/10/2022,00:32:04,0.000,0.0,0.0,0.0
03/10/2022,00:33:04,0.000,0.0,0.0,0.0
03/10/2022,00:34:04,0.000,0.0,0.0,0.0
03/10/2022,00:35:04,0.000,0.0,0.0,0.0
03/10/2022,00:36:04,0.000,0.0,0.0,0.0
03/10/2022,00:37:04,0.000,0.0,0.0,0.0
03/10/2022,00:38:04,0.001,0.0,0.0,0.0
03/10/2022,00:39:04,0.000,0.0,0.0,0.0
03/10/2022,00:40:04,0.000,0.0,0.0,0.0
03/10/2022,00:41:04,0.000,0.0,0.0,0.0
03/10/2022,00:42:04,0.000,0.0,0.0,0.0
03/10/2022,00:43:04,0.000,0.0,0.0,0.0
03/10/2022,00:44:04,0.000,0.0,0.0,0.0
03/10/2022,00:45:04,-0.001,0.0,0.0,0.0
03/10/2022,00:46:04,0.000,0.0,0.0,0.0
03/10/2022,00:47:04,0.000,0.0,0.0,0.0
03/10/2022,00:48:04,0.000,0.0,0.0,0.0
03/10/2022,00:49:04,0.000,0.0,0.0,0.0
03/10/2022,00:50:04,0.001,0.0,0.0,0.0
03/10/2022,00:51:04,0.001,0.0,0.0,0.0
03/10/2022,00:52:04,0.000,0.0,0.0,0.0
03/10/2022,00:53:04,0.000,0.0,0.0,0.0
03/10/2022,00:54:04,0.001,0.0,0.0,0.0
03/10/2022,00:55:04,0.000,0.0,0.0,0.0
03/10/2022,00:56:04,0.000,0.0,0.0,0.0
03/10/2022,00:57:04,0.000,0.0,0.0,0.0
03/10/2022,00:58:04,0.000,0.0,0.0,0.0
03/10/2022,00:59:04,0.001,0.0,0.0,0.0
03/10/2022,01:00:04,0.000,0.0,0.0,0.0
03/10/2022,01:01:04,0.000,0.0,0.0,0.0
03/10/2022,01:02:04,0.001,0.0,0.0,0.0
03/10/2022,01:03:04,-0.001,0.0,0.0,0.0
03/10/2022,01:04:04,0.000,0.0,0.0,0.0
03/10/2022,01:05:04,0.000,0.0,0.0,0.0
03/10/2022,01:06:04,0.001,0.0,0.0,0.0
03/10/2022,01:07:04,0.000,0.0,0.0,0.0
03/10/2022,01:08:04,0.001,0.0,0.0,0.0
03/10/2022,01:09:04,0.000,0.0,0.0,0.0
03/10/2022,01:10:04,0.000,0.0,0.0,0.0
03/10/2022,01:11:04,0.000,0.0,0.0,0.0
03/10/2022,01:12:04,-0.001,0.0,0.0,0.0
03/10/2022,01:13:04,0.001,0.0,0.0,0.0
03/10/2022,01:14:04,0.000,0.0,0.0,0.0
03/10/2022,01:15:04,0.000,0.0,0.0,0.0
03/10/2022,01:16:04,0.001,0.0,0.0,0.0
03/10/2022,01:17:04,0.000,0.0,0.0,0.0
03/10/2022,01:18:04,0.001,0.0,0.0,0.0
03/10/2022,01:19:04,0.000,0.0,0.0,0.0
03/10/2022,01:20:04,0.000,0.0,0.0,0.0
03/10/2022,01:21:04,0.001,0.0,0.0,0.0
03/10/2022,01:22:04,0.000,0.0,0.0,0.0
03/10/2022,01:23:04,0.001,0.0,0.0,0.0
03/10/2022,01:24:04,0.000,0.0,0.0,0.0
03/10/2022,01:25:04,0.000,0.0,0.0,0.0
03/10/2022,01:26:04,0.001,0.0,0.0,0.0
03/10/2022,01:27:04,0.000,0.0,0.0,0.0
03/10/2022,01:28:04,0.001,0.0,0.0,0.0
03/10/2022,01:29:04,0.000,0.0,0.0,0.0
03/10/2022,01:30:04,-0.001,0.0,0.0,0.0
03/10/2022,01:31:04,0.000,0.0,0.0,0.0
03/10/2022,01:32:04,0.000,0.0,0.0,0.0
03/10/2022,01:33:04,0.000,0.0,0.0,0.0
03/10/2022,01:34:04,-0.001,0.0,0.0,0.0
03/10/2022,01:35:05,0.000,0.0,0.0,0.0
03/10/2022,01:36:04,0.001,0.0,0.0,0.0
03/10/2022,01:37:04,0.000,0.0,0.0,0.0
03/10/2022,01:38:04,0.000,0.0,0.0,0.0
03/10/2022,01:39:04,0.000,0.0,0.0,0.0
03/10/2022,01:40:04,0.000,0.0,0.0,0.0
03/10/2022,01:41:04,-0.001,0.0,0.0,0.0
03/10/2022,01:42:04,0.000,0.0,0.0,0.0
03/10/2022,01:43:05,0.000,0.0,0.0,0.0
03/10/2022,01:44:04,0.001,0.0,0.0,0.0
03/10/2022,01:45:05,0.000,0.0,0.0,0.0
03/10/2022,01:46:04,-0.002,0.0,0.0,0.0
03/10/2022,01:47:04,0.000,0.0,0.0,0.0
03/10/2022,01:48:04,-0.000,0.0,0.0,0.0
03/10/2022,01:49:04,0.000,0.0,0.0,0.0
03/10/2022,01:50:04,0.000,0.0,0.0,0.0
03/10/2022,01:51:04,0.000,0.0,0.0,0.0
03/10/2022,01:52:04,0.000,0.0,0.0,0.0
03/10/2022,01:53:04,0.001,0.0,0.0,0.0
03/10/2022,01:54:04,0.000,0.0,0.0,0.0
03/10/2022,01:55:04,0.000,0.0,0.0,0.0
03/10/2022,01:56:04,0.001,0.0,0.0,0.0
03/10/2022,01:57:04,0.000,0.0,0.0,0.0
03/10/2022,01:58:04,0.000,0.0,0.0,0.0
03/10/2022,01:59:04,0.001,0.0,0.0,0.0
03/10/2022,02:00:04,0.000,0.0,0.0,0.0
03/10/2022,02:01:04,0.000,0.0,0.0,0.0
03/10/2022,02:02:04,0.000,0.0,0.0,0.0
03/10/2022,02:03:04,-0.000,0.0,0.0,0.0
03/10/2022,02:04:04,-0.000,0.0,0.0,0.0
03/10/2022,02:05:04,0.000,0.0,0.0,0.0
03/10/2022,02:06:04,0.000,0.0,0.0,0.0
03/10/2022,02:07:04,-0.001,0.0,0.0,0.0
03/10/2022,02:08:04,0.000,0.0,0.0,0.0
03/10/2022,02:09:05,0.000,0.0,0.0,0.0
03/10/2022,02:10:04,0.000,0.0,0.0,0.0
03/10/2022,02:11:04,0.001,0.0,0.0,0.0
03/10/2022,02:12:04,0.000,0.0,0.0,0.0
03/10/2022,02:13:04,-0.000,0.0,0.0,0.0
03/10/2022,02:14:04,0.000,0.0,0.0,0.0
03/10/2022,02:15:04,0.000,0.0,0.0,0.0
03/10/2022,02:16:04,0.001,0.0,0.0,0.0
03/10/2022,02:17:04,0.000,0.0,0.0,0.0
03/10/2022,02:18:05,0.000,0.0,0.0,0.0
03/10/2022,02:19:04,0.000,0.0,0.0,0.0
03/10/2022,02:20:04,0.000,0.0,0.0,0.0
03/10/2022,02:21:04,-0.001,0.0,0.0,0.0
03/10/2022,02:22:04,0.001,0.0,0.0,0.0
03/10/2022,02:23:04,0.000,0.0,0.0,0.0
03/10/2022,02:24:05,0.000,0.0,0.0,0.0
03/10/2022,02:25:05,0.000,0.0,0.0,0.0
03/10/2022,02:26:04,0.000,0.0,0.0,0.0
03/10/2022,02:27:04,0.000,0.0,0.0,0.0
03/10/2022,02:28:04,0.000,0.0,0.0,0.0
03/10/2022,02:29:05,0.000,0.0,0.0,0.0
03/10/2022,02:30:04,0.000,0.0,0.0,0.0
03/10/2022,02:31:04,0.000,0.0,0.0,0.0
03/10/2022,02:32:05,-0.001,0.0,0.0,0.0
03/10/2022,02:33:04,0.000,0.0,0.0,0.0
03/10/2022,02:34:04,0.000,0.0,0.0,0.0
03/10/2022,02:35:04,0.000,0.0,0.0,0.0
03/10/2022,02:36:04,0.001,0.0,0.0,0.0
03/10/2022,02:37:04,0.000,0.0,0.0,0.0
03/10/2022,02:38:04,0.000,0.0,0.0,0.0
03/10/2022,02:39:04,0.000,0.0,0.0,0.0
03/10/2022,02:40:05,0.000,0.0,0.0,0.0
03/10/2022,02:41:04,0.000,0.0,0.0,0.0
03/10/2022,02:42:04,-0.001,0.0,0.0,0.0
03/10/2022,02:43:04,0.000,0.0,0.0,0.0
03/10/2022,02:44:05,-0.001,0.0,0.0,0.0
03/10/2022,02:45:04,0.000,0.0,0.0,0.0
03/10/2022,02:46:04,0.000,0.0,0.0,0.0
03/10/2022,02:47:04,0.001,0.0,0.0,0.0
03/10/2022,02:48:05,0.000,0.0,0.0,0.0
03/10/2022,02:49:04,0.001,0.0,0.0,0.0
03/10/2022,02:50:04,0.000,0.0,0.0,0.0
03/10/2022,02:51:04,0.000,0.0,0.0,0.0
03/10/2022,02:52:04,0.001,0.0,0.0,0.0
03/10/2022,02:53:04,0.000,0.0,0.0,0.0
03/10/2022,02:54:04,-0.001,0.0,0.0,0.0
03/10/2022,02:55:04,0.000,0.0,0.0,0.0
03/10/2022,02:56:04,0.001,0.0,0.0,0.0
03/10/2022,02:57:04,0.000,0.0,0.0,0.0
03/10/2022,02:58:04,0.000,0.0,0.0,0.0
03/10/2022,02:59:04,0.000,0.0,0.0,0.0
03/10/2022,03:00:04,0.001,0.0,0.0,0.0
03/10/2022,03:01:04,0.000,0.0,0.0,0.0
03/10/2022,03:02:04,0.000,0.0,0.0,0.0
03/10/2022,03:03:04,0.000,0.0,0.0,0.0
03/10/2022,03:04:04,0.000,0.0,0.0,0.0
03/10/2022,03:05:05,0.000,0.0,0.0,0.0
03/10/2022,03:06:04,0.000,0.0,0.0,0.0
03/10/2022,03:08:21,0.000,0.0,0.0,0.0
03/10/2022,03:09:04,0.000,0.0,0.0,0.0
03/10/2022,03:10:04,0.001,0.0,0.0,0.0
03/10/2022,03:11:05,0.000,0.0,0.0,0.0
03/10/2022,03:12:05,0.000,0.0,0.0,0.0
03/10/2022,03:13:05,0.001,0.0,0.0,0.0
03/10/2022,03:14:04,0.001,0.0,0.0,0.0
03/10/2022,03:15:04,0.000,0.0,0.0,0.0
03/10/2022,03:16:04,0.000,0.0,0.0,0.0
03/10/2022,03:17:05,0.001,0.0,0.0,0.0
03/10/2022,03:18:04,0.000,0.0,0.0,0.0
03/10/2022,03:19:04,0.000,0.0,0.0,0.0
03/10/2022,03:20:05,0.000,0.0,0.0,0.0
03/10/2022,03:21:04,0.000,0.0,0.0,0.0
03/10/2022,03:22:05,0.001,0.0,0.0,0.0
03/10/2022,03:23:04,0.000,0.0,0.0,0.0
03/10/2022,03:24:04,0.001,0.0,0.0,0.0
03/10/2022,03:25:05,0.000,0.0,0.0,0.0
03/10/2022,03:26:04,0.000,0.0,0.0,0.0
03/10/2022,03:27:04,0.000,0.0,0.0,0.0
03/10/2022,03:28:04,0.000,0.0,0.0,0.0
03/10/2022,03:29:05,-0.001,0.0,0.0,0.0
03/10/2022,03:30:04,0.000,0.0,0.0,0.0
03/10/2022,03:31:05,0.001,0.0,0.0,0.0
03/10/2022,03:32:04,0.000,0.0,0.0,0.0
03/10/2022,03:33:04,0.001,0.0,0.0,0.0
03/10/2022,03:34:04,-0.001,0.0,0.0,0.0
03/10/2022,03:35:04,-0.001,0.0,0.0,0.0
03/10/2022,03:36:04,0.000,0.0,0.0,0.0
03/10/2022,03:37:04,0.000,0.0,0.0,0.0
03/10/2022,03:38:05,0.000,0.0,0.0,0.0
03/10/2022,03:39:04,0.000,0.0,0.0,0.0
03/10/2022,03:40:05,0.001,0.0,0.0,0.0
03/10/2022,03:41:04,0.000,0.0,0.0,0.0
03/10/2022,03:42:04,0.000,0.0,0.0,0.0
03/10/2022,03:43:04,0.000,0.0,0.0,0.0
03/10/2022,03:44:04,0.000,0.0,0.0,0.0
03/10/2022,03:45:04,0.000,0.0,0.0,0.0
03/10/2022,03:46:05,0.000,0.0,0.0,0.0
03/10/2022,03:47:04,-0.001,0.0,0.0,0.0
03/10/2022,03:48:04,0.001,0.0,0.0,0.0
03/10/2022,03:49:04,0.000,0.0,0.0,0.0
03/10/2022,03:50:05,-0.000,0.0,0.0,0.0
03/10/2022,03:51:04,0.000,0.0,0.0,0.0
03/10/2022,03:52:04,-0.000,0.0,0.0,0.0
03/10/2022,03:53:04,0.000,0.0,0.0,0.0
03/10/2022,03:54:04,-0.001,0.0,0.0,0.0
03/10/2022,03:55:04,-0.000,0.0,0.0,0.0
03/10/2022,03:56:05,0.000,0.0,0.0,0.0
03/10/2022,03:57:05,-0.000,0.0,0.0,0.0
03/10/2022,03:58:04,0.000,0.0,0.0,0.0
03/10/2022,03:59:05,0.000,0.0,0.0,0.0
03/10/2022,04:00:04,0.001,0.0,0.0,0.0
03/10/2022,04:01:04,0.000,0.0,0.0,0.0
03/10/2022,04:02:04,-0.001,0.0,0.0,0.0
03/10/2022,04:03:04,-0.001,0.0,0.0,0.0
03/10/2022,04:04:05,-0.001,0.0,0.0,0.0
03/10/2022,04:05:04,0.000,0.0,0.0,0.0
03/10/2022,04:06:04,0.001,0.0,0.0,0.0
03/10/2022,04:07:05,0.000,0.0,0.0,0.0
03/10/2022,04:08:04,-0.000,0.0,0.0,0.0
03/10/2022,04:09:05,0.000,0.0,0.0,0.0
03/10/2022,04:10:04,-0.001,0.0,0.0,0.0
03/10/2022,04:11:04,0.000,0.0,0.0,0.0
03/10/2022,04:12:04,0.000,0.0,0.0,0.0
03/10/2022,04:13:04,0.000,0.0,0.0,0.0
03/10/2022,04:14:04,0.001,0.0,0.0,0.0
03/10/2022,04:15:04,-0.000,0.0,0.0,0.0
03/10/2022,04:16:04,-0.001,0.0,0.0,0.0
03/10/2022,04:17:04,-0.000,0.0,0.0,0.0
03/10/2022,04:18:05,0.000,0.0,0.0,0.0
03/10/2022,04:19:04,0.000,0.0,0.0,0.0
03/10/2022,04:20:04,0.000,0.0,0.0,0.0
03/10/2022,04:21:04,-0.000,0.0,0.0,0.0
03/10/2022,04:22:04,0.001,0.0,0.0,0.0
03/10/2022,04:23:04,0.001,0.0,0.0,0.0
03/10/2022,04:24:04,0.000,0.0,0.0,0.0
03/10/2022,04:25:05,0.001,0.0,0.0,0.0
03/10/2022,04:26:04,-0.001,0.0,0.0,0.0
03/10/2022,04:27:04,0.001,0.0,0.0,0.0
03/10/2022,04:28:04,0.000,0.0,0.0,0.0
03/10/2022,04:29:05,0.000,0.0,0.0,0.0
03/10/2022,04:30:04,0.001,0.0,0.0,0.0
03/10/2022,04:31:04,0.000,0.0,0.0,0.0
03/10/2022,04:32:05,0.001,0.0,0.0,0.0
03/10/2022,04:33:04,0.000,0.0,0.0,0.0
03/10/2022,04:34:05,0.000,0.0,0.0,0.0
03/10/2022,04:35:04,0.000,0.0,0.0,0.0
03/10/2022,04:36:04,0.000,0.0,0.0,0.0
03/10/2022,04:37:05,0.000,0.0,0.0,0.0
03/10/2022,04:38:05,0.001,0.0,0.0,0.0
03/10/2022,04:39:04,0.000,0.0,0.0,0.0
03/10/2022,04:40:04,-0.000,0.0,0.0,0.0
03/10/2022,04:41:04,0.000,0.0,0.0,0.0
03/10/2022,04:42:05,0.000,0.0,0.0,0.0
03/10/2022,04:43:04,0.000,0.0,0.0,0.0
03/10/2022,04:44:05,0.000,0.0,0.0,0.0
03/10/2022,04:45:05,0.000,0.0,0.0,0.0
03/10/2022,04:46:04,0.000,0.0,0.0,0.0
03/10/2022,04:47:05,0.000,0.0,0.0,0.0
03/10/2022,04:48:04,0.001,0.0,0.0,0.0
03/10/2022,04:49:04,0.001,0.0,0.0,0.0
03/10/2022,04:50:04,0.000,0.0,0.0,0.0
03/10/2022,04:51:05,0.000,0.0,0.0,0.0
03/10/2022,04:52:04,-0.001,0.0,0.0,0.0
03/10/2022,04:53:04,0.000,0.0,0.0,0.0
03/10/2022,04:54:05,-0.001,0.0,0.0,0.0
03/10/2022,04:55:04,0.001,0.0,0.0,0.0
03/10/2022,04:56:05,0.000,0.0,0.0,0.0
03/10/2022,04:57:04,0.000,0.0,0.0,0.0
03/10/2022,04:58:04,0.000,0.0,0.0,0.0
03/10/2022,04:59:04,0.000,0.0,0.0,0.0
03/10/2022,05:00:05,0.000,0.0,0.0,0.0
03/10/2022,05:01:04,-0.001,0.0,0.0,0.0
03/10/2022,05:02:04,0.000,0.0,0.0,0.0
03/10/2022,05:03:05,0.001,0.0,0.0,0.0
03/10/2022,05:04:04,0.000,0.0,0.0,0.0
03/10/2022,05:05:04,0.000,0.0,0.0,0.0
03/10/2022,05:06:04,0.001,0.0,0.0,0.0
03/10/2022,05:07:05,0.001,0.0,0.0,0.0
03/10/2022,05:08:04,0.000,0.0,0.0,0.0
03/10/2022,05:09:05,0.001,0.0,0.0,0.0
03/10/2022,05:10:04,0.000,0.0,0.0,0.0
03/10/2022,05:11:04,0.001,0.0,0.0,0.0
03/10/2022,05:12:05,0.001,0.0,0.0,0.0
03/10/2022,05:13:04,0.000,0.0,0.0,0.0
03/10/2022,05:14:04,0.000,0.0,0.0,0.0
03/10/2022,05:15:04,0.001,0.0,0.0,0.0
03/10/2022,05:16:05,0.000,0.0,0.0,0.0
03/10/2022,05:17:04,0.001,0.0,0.0,0.0
03/10/2022,05:18:04,0.000,0.0,0.0,0.0
03/10/2022,05:19:04,0.000,0.0,0.0,0.0
03/10/2022,05:21:21,0.000,0.0,0.0,0.0
03/10/2022,05:22:04,0.001,0.0,0.0,0.0
03/10/2022,05:23:05,0.000,0.0,0.0,0.0
03/10/2022,05:24:04,0.000,0.0,0.0,0.0
03/10/2022,05:25:05,0.000,0.0,0.0,0.0
03/10/2022,05:26:04,0.001,0.0,0.0,0.0
03/10/2022,05:27:04,0.000,0.0,0.0,0.0
03/10/2022,05:28:05,0.001,0.0,0.0,0.0
03/10/2022,05:29:05,0.001,0.0,0.0,0.0
03/10/2022,05:30:05,0.000,0.0,0.0,0.0
03/10/2022,05:31:03,0.001,0.0,0.0,0.0
03/10/2022,05:32:05,0.000,0.0,0.0,0.0
03/10/2022,05:33:04,0.001,0.0,0.0,0.0
03/10/2022,05:34:04,0.001,0.0,0.0,0.0
03/10/2022,05:35:04,0.001,0.0,0.0,0.0
03/10/2022,05:36:05,0.001,0.0,0.0,0.0
03/10/2022,05:37:04,0.000,0.0,0.0,0.0
03/10/2022,05:38:05,0.001,0.0,0.0,0.0
03/10/2022,05:39:04,0.001,0.0,0.0,0.0
03/10/2022,05:40:04,0.001,0.0,0.0,0.0
03/10/2022,05:41:05,0.001,0.0,0.0,0.0
03/10/2022,05:42:04,0.001,0.0,0.0,0.0
03/10/2022,05:43:05,0.001,0.0,0.0,0.0
03/10/2022,05:44:04,0.001,0.0,0.0,0.0
03/10/2022,05:45:04,0.001,0.0,0.0,0.0
03/10/2022,05:46:05,0.001,0.0,0.0,0.0
03/10/2022,05:47:04,0.001,0.0,0.0,0.0
03/10/2022,05:48:04,0.001,0.0,0.0,0.0
03/10/2022,05:49:05,0.001,0.0,0.0,0.0
03/10/2022,05:50:05,0.001,0.0,0.0,0.0
03/10/2022,05:51:04,0.001,0.0,0.0,0.0
03/10/2022,05:52:04,0.001,0.0,0.0,0.0
03/10/2022,05:53:05,0.001,0.0,0.0,0.0
03/10/2022,05:54:04,0.001,0.0,0.0,0.0
03/10/2022,05:55:04,0.001,0.0,0.0,0.0
03/10/2022,05:56:04,0.001,0.0,0.0,0.0
03/10/2022,05:57:04,0.002,0.0,0.0,0.0
03/10/2022,05:58:04,0.001,0.0,0.0,0.0
03/10/2022,05:59:05,0.001,0.0,0.0,0.0
03/10/2022,06:00:04,0.001,0.0,0.0,0.0
03/10/2022,06:01:04,0.001,0.0,0.0,0.0
03/10/2022,06:02:05,0.002,0.0,0.0,0.0
03/10/2022,06:03:04,0.002,0.0,0.0,0.0
03/10/2022,06:04:05,0.003,0.0,0.0,0.0
03/10/2022,06:05:04,0.001,0.0,0.0,0.0
03/10/2022,06:06:04,0.002,0.0,0.0,0.0
03/10/2022,06:07:05,0.002,0.0,0.0,0.0
03/10/2022,06:08:05,0.002,0.0,0.0,0.0
03/10/2022,06:09:05,0.002,0.0,0.0,0.0
03/10/2022,06:10:04,0.002,0.0,0.0,0.0
03/10/2022,06:11:05,0.002,0.0,0.0,0.0
03/10/2022,06:12:04,0.003,0.0,0.0,0.0
03/10/2022,06:13:04,0.004,0.0,0.0,0.0
03/10/2022,06:14:05,0.003,0.0,0.0,0.0
03/10/2022,06:15:04,0.003,0.0,0.0,0.0
03/10/2022,06:16:04,0.004,0.0,0.0,0.0
03/10/2022,06:17:05,0.004,0.0,0.0,0.0
03/10/2022,06:18:05,0.004,0.0,0.0,0.0
03/10/2022,06:19:05,0.005,0.0,0.0,0.0
03/10/2022,06:20:05,0.005,0.0,0.0,0.0
03/10/2022,06:21:05,0.005,0.0,0.0,0.0
03/10/2022,06:22:04,0.005,0.0,0.0,0.0
03/10/2022,06:23:05,0.005,0.0,0.0,0.0
03/10/2022,06:24:04,0.005,0.0,0.0,0.0
03/10/2022,06:25:04,0.006,0.0,0.0,0.0
03/10/2022,06:26:05,0.006,0.0,0.0,0.0
03/10/2022,06:27:05,0.007,0.0,0.0,0.0
03/10/2022,06:28:04,0.006,0.0,0.0,0.0
03/10/2022,06:29:04,0.006,0.0,0.0,0.0
03/10/2022,06:30:05,0.007,0.0,0.0,0.0
03/10/2022,06:31:05,0.007,0.0,0.0,0.0
03/10/2022,06:32:04,0.007,0.0,0.001,0.001
03/10/2022,06:33:05,0.008,0.0,0.001,0.0
03/10/2022,06:34:04,0.008,0.0,0.001,0.0
03/10/2022,06:35:05,0.007,0.0,0.001,0.0
03/10/2022,06:36:04,0.009,0.0,0.001,0.0
03/10/2022,06:37:04,0.008,0.0,0.001,0.0
03/10/2022,06:38:05,0.009,0.0,0.001,0.0
03/10/2022,06:39:04,0.009,0.0,0.002,0.001
03/10/2022,06:40:04,0.009,0.0,0.002,0.0
03/10/2022,06:41:05,0.010,0.0,0.002,0.0
03/10/2022,06:42:04,0.010,0.0,0.002,0.0
03/10/2022,06:43:04,0.010,0.0,0.002,0.0
03/10/2022,06:44:05,0.010,0.0,0.002,0.0
03/10/2022,06:45:04,0.012,0.0,0.003,0.001
03/10/2022,06:46:04,0.012,0.0,0.003,0.0
03/10/2022,06:47:05,0.013,0.0,0.003,0.0
03/10/2022,06:48:04,0.013,0.0,0.003,0.0
03/10/2022,06:49:04,0.014,0.0,0.003,0.0
03/10/2022,06:50:05,0.015,0.0,0.004,0.001
03/10/2022,06:51:05,0.016,0.0,0.004,0.0
03/10/2022,06:52:05,0.016,0.0,0.004,0.0
03/10/2022,06:54:22,0.018,0.0,0.005,0.001
03/10/2022,06:55:04,0.019,0.0,0.005,0.0
03/10/2022,06:56:05,0.020,0.0,0.005,0.0
03/10/2022,06:57:05,0.020,0.0,0.006,0.001
03/10/2022,06:58:04,0.021,0.0,0.006,0.0
03/10/2022,06:59:04,0.022,0.0,0.006,0.0
03/10/2022,07:00:05,0.024,0.0,0.007,0.001
03/10/2022,07:01:04,0.023,0.0,0.007,0.0
03/10/2022,07:02:04,0.026,0.0,0.008,0.001
03/10/2022,07:03:05,0.028,0.0,0.008,0.0
03/10/2022,07:04:05,0.029,0.0,0.008,0.0
03/10/2022,07:05:04,0.030,0.0,0.009,0.001
03/10/2022,07:06:04,0.032,0.0,0.009,0.0
03/10/2022,07:07:04,0.033,0.0,0.01,0.001
03/10/2022,07:08:04,0.035,0.0,0.011,0.001
03/10/2022,07:09:05,0.037,0.0,0.011,0.0
03/10/2022,07:10:04,0.038,0.0,0.012,0.001
03/10/2022,07:11:05,0.041,0.0,0.012,0.0
03/10/2022,07:12:05,0.042,0.0,0.013,0.001
03/10/2022,07:13:04,0.043,0.0,0.014,0.001
03/10/2022,07:14:04,0.045,0.0,0.015,0.001
03/10/2022,07:15:05,0.047,0.0,0.015,0.0
03/10/2022,07:16:04,0.049,0.0,0.016,0.001
03/10/2022,07:17:04,0.050,0.0,0.017,0.001
03/10/2022,07:18:05,0.051,0.0,0.018,0.001
03/10/2022,07:19:04,0.053,0.0,0.019,0.001
03/10/2022,07:20:05,0.055,0.0,0.02,0.001
03/10/2022,07:21:05,0.056,0.0,0.021,0.001
03/10/2022,07:22:05,0.058,0.0,0.022,0.001
03/10/2022,07:23:05,0.059,0.0,0.022,0.0
03/10/2022,07:24:05,0.060,0.0,0.023,0.001
03/10/2022,07:25:04,0.062,0.0,0.024,0.001
03/10/2022,07:26:05,0.063,0.0,0.026,0.002
03/10/2022,07:27:05,0.064,0.0,0.027,0.001
03/10/2022,07:28:05,0.064,0.0,0.028,0.001
03/10/2022,07:29:04,0.064,0.0,0.029,0.001
03/10/2022,07:30:04,0.065,0.0,0.03,0.001
03/10/2022,07:31:05,0.065,0.0,0.031,0.001
03/10/2022,07:32:04,0.066,0.0,0.032,0.001
03/10/2022,07:33:04,0.067,0.0,0.033,0.001
03/10/2022,07:34:05,0.068,0.0,0.034,0.001
03/10/2022,07:35:04,0.070,0.0,0.035,0.001
03/10/2022,07:36:04,0.072,0.0,0.036,0.001
03/10/2022,07:37:05,0.075,0.0,0.038,0.002
03/10/2022,07:38:04,0.076,0.0,0.039,0.001
03/10/2022,07:39:04,0.078,0.0,0.04,0.001
03/10/2022,07:40:05,0.080,0.0,0.042,0.002
03/10/2022,07:41:04,0.082,0.0,0.043,0.001
03/10/2022,07:42:05,0.084,0.0,0.044,0.001
03/10/2022,07:43:05,0.086,0.0,0.046,0.002
03/10/2022,07:44:04,0.086,0.0,0.047,0.001
03/10/2022,07:45:05,0.089,0.0,0.049,0.002
03/10/2022,07:46:05,0.089,0.0,0.05,0.001
03/10/2022,07:47:05,0.088,0.0,0.052,0.002
03/10/2022,07:48:06,0.088,0.0,0.053,0.001
03/10/2022,07:49:04,0.087,0.0,0.054,0.001
03/10/2022,07:50:04,0.088,0.0,0.056,0.002
03/10/2022,07:51:04,0.088,0.0,0.057,0.001
03/10/2022,07:52:05,0.089,0.0,0.059,0.002
03/10/2022,07:53:04,0.090,0.0,0.06,0.001
03/10/2022,07:54:05,0.091,0.0,0.062,0.002
03/10/2022,07:55:05,0.093,0.0,0.063,0.001
03/10/2022,07:56:04,0.096,0.0,0.065,0.002
03/10/2022,07:57:05,0.098,0.0,0.067,0.002
03/10/2022,07:58:04,0.100,0.0,0.068,0.001
03/10/2022,07:59:04,0.104,0.0,0.07,0.002
03/10/2022,08:00:05,0.107,0.0,0.072,0.002
03/10/2022,08:01:04,0.109,0.0,0.073,0.001
03/10/2022,08:02:04,0.111,0.0,0.075,0.002
03/10/2022,08:03:04,0.115,0.0,0.077,0.002
03/10/2022,08:04:05,0.117,0.0,0.079,0.002
03/10/2022,08:05:05,0.119,0.0,0.081,0.002
03/10/2022,08:06:05,0.120,0.0,0.083,0.002
03/10/2022,08:07:04,0.123,0.0,0.085,0.002
03/10/2022,08:08:04,0.125,0.0,0.087,0.002
03/10/2022,08:09:05,0.127,0.0,0.089,0.002
03/10/2022,08:11:31,0.134,0.0,0.095,0.006
03/10/2022,08:12:04,0.136,0.0,0.096,0.001
03/10/2022,08:13:05,0.140,0.0,0.098,0.002
03/10/2022,08:14:05,0.146,0.0,0.101,0.003
03/10/2022,08:15:05,0.153,0.0,0.103,0.002
03/10/2022,08:16:05,0.156,0.0,0.106,0.003
03/10/2022,08:17:04,0.156,0.0,0.108,0.002
03/10/2022,08:18:05,0.158,0.0,0.111,0.003
03/10/2022,08:19:05,0.163,0.0,0.114,0.003
03/10/2022,08:20:04,0.167,0.0,0.116,0.002
03/10/2022,08:21:04,0.170,0.0,0.119,0.003
03/10/2022,08:22:05,0.173,0.0,0.122,0.003
03/10/2022,08:23:04,0.176,0.0,0.125,0.003
03/10/2022,08:24:05,0.179,0.0,0.128,0.003
03/10/2022,08:25:04,0.183,0.0,0.131,0.003
03/10/2022,08:26:05,0.188,0.0,0.134,0.003
03/10/2022,08:27:05,0.193,0.0,0.137,0.003
03/10/2022,08:28:04,0.197,0.0,0.14,0.003
03/10/2022,08:29:05,0.201,0.0,0.144,0.004
03/10/2022,08:30:04,0.205,0.0,0.147,0.003
03/10/2022,08:31:04,0.207,0.0,0.15,0.003
03/10/2022,08:32:05,0.210,0.0,0.154,0.004
03/10/2022,08:33:05,0.214,0.0,0.158,0.004
03/10/2022,08:34:05,0.217,0.0,0.161,0.003
03/10/2022,08:35:04,0.220,1.0,0.165,0.004
03/10/2022,08:36:05,0.223,1.0,0.168,0.003
03/10/2022,08:37:05,0.225,1.0,0.172,0.004
03/10/2022,08:38:04,0.227,1.0,0.176,0.004
03/10/2022,08:39:05,0.228,1.0,0.18,0.004
03/10/2022,08:40:05,0.228,1.0,0.183,0.003
03/10/2022,08:41:05,0.228,1.0,0.187,0.004
03/10/2022,08:42:04,0.227,1.0,0.191,0.004
03/10/2022,08:43:05,0.226,1.0,0.195,0.004
03/10/2022,08:44:05,0.224,1.0,0.199,0.004
03/10/2022,08:45:05,0.222,1.0,0.202,0.003
03/10/2022,08:46:04,0.221,1.0,0.206,0.004
03/10/2022,08:47:05,0.222,1.0,0.21,0.004
03/10/2022,08:48:05,0.223,1.0,0.213,0.003
03/10/2022,08:49:05,0.225,1.0,0.217,0.004
03/10/2022,08:50:05,0.227,1.0,0.221,0.004
03/10/2022,08:51:05,0.229,1.0,0.225,0.004
03/10/2022,08:52:05,0.231,1.0,0.228,0.003
03/10/2022,08:53:04,0.231,1.0,0.232,0.004
03/10/2022,08:54:05,0.236,1.0,0.236,0.004
03/10/2022,08:55:04,0.236,1.0,0.24,0.004
03/10/2022,08:56:04,0.239,1.0,0.244,0.004
03/10/2022,08:57:05,0.241,1.0,0.248,0.004
03/10/2022,08:58:05,0.245,1.0,0.252,0.004
03/10/2022,08:59:04,0.249,1.0,0.256,0.004
03/10/2022,09:00:04,0.255,1.0,0.26,0.004
03/10/2022,09:01:05,0.262,1.0,0.265,0.005
03/10/2022,09:02:05,0.269,1.0,0.269,0.004
03/10/2022,09:03:05,0.278,1.0,0.274,0.005
03/10/2022,09:04:05,0.285,1.0,0.279,0.005
03/10/2022,09:05:05,0.293,1.0,0.283,0.004
03/10/2022,09:06:05,0.301,1.0,0.288,0.005
03/10/2022,09:07:05,0.310,1.0,0.293,0.005
03/10/2022,09:08:05,0.316,1.0,0.298,0.005
03/10/2022,09:09:05,0.323,1.0,0.304,0.006
03/10/2022,09:10:05,0.330,1.0,0.309,0.005
03/10/2022,09:11:05,0.336,1.0,0.315,0.006
03/10/2022,09:12:05,0.341,1.0,0.32,0.005
03/10/2022,09:13:05,0.344,1.0,0.326,0.006
03/10/2022,09:14:05,0.348,1.0,0.332,0.006
03/10/2022,09:15:05,0.352,1.0,0.338,0.006
03/10/2022,09:16:05,0.357,1.0,0.344,0.006
03/10/2022,09:17:04,0.367,1.0,0.35,0.006
03/10/2022,09:18:04,0.368,1.0,0.356,0.006
03/10/2022,09:19:05,0.371,1.0,0.362,0.006
03/10/2022,09:20:05,0.375,1.0,0.368,0.006
03/10/2022,09:21:05,0.377,1.0,0.374,0.006
03/10/2022,09:22:04,0.381,1.0,0.381,0.007
03/10/2022,09:23:05,0.383,1.0,0.387,0.006
03/10/2022,09:24:05,0.385,1.0,0.393,0.006
03/10/2022,09:25:05,0.388,1.0,0.4,0.007
03/10/2022,09:26:05,0.392,1.0,0.406,0.006
03/10/2022,09:27:05,0.394,1.0,0.413,0.007
03/10/2022,09:28:05,0.397,1.0,0.42,0.007
03/10/2022,09:29:05,0.399,1.0,0.426,0.006
03/10/2022,09:30:05,0.401,1.0,0.433,0.007
03/10/2022,09:31:05,0.400,1.0,0.44,0.007
03/10/2022,09:32:04,0.404,1.0,0.446,0.006
03/10/2022,09:33:05,0.405,1.0,0.453,0.007
03/10/2022,09:34:04,0.409,1.0,0.46,0.007
03/10/2022,09:35:05,0.416,1.0,0.467,0.007
03/10/2022,09:36:05,0.419,1.0,0.474,0.007
03/10/2022,09:37:05,0.423,1.0,0.481,0.007
03/10/2022,09:38:05,0.426,1.0,0.488,0.007
03/10/2022,09:39:05,0.429,1.0,0.495,0.007
03/10/2022,09:40:05,0.435,1.0,0.502,0.007
03/10/2022,09:41:05,0.440,1.0,0.509,0.007
03/10/2022,09:42:05,0.448,1.0,0.517,0.008
03/10/2022,09:43:05,0.452,1.0,0.524,0.007
03/10/2022,09:44:04,0.458,1.0,0.532,0.008
03/10/2022,09:45:05,0.507,1.0,0.54,0.008
03/10/2022,09:46:05,0.502,1.0,0.548,0.008
03/10/2022,09:47:04,0.491,1.0,0.556,0.008
03/10/2022,09:48:05,0.494,1.0,0.565,0.009
03/10/2022,09:49:04,0.479,1.0,0.573,0.008
03/10/2022,09:51:22,0.477,1.0,0.591,0.018
03/10/2022,09:52:06,0.477,1.0,0.597,0.006
03/10/2022,09:53:05,0.482,1.0,0.605,0.008
03/10/2022,09:54:04,0.484,1.0,0.613,0.008
03/10/2022,09:55:05,0.491,1.0,0.621,0.008
03/10/2022,09:56:05,0.506,1.0,0.629,0.008
03/10/2022,09:57:05,0.500,1.0,0.638,0.009
03/10/2022,09:58:05,0.501,1.0,0.646,0.008
03/10/2022,09:59:05,0.507,1.0,0.654,0.008
03/10/2022,10:00:05,0.507,1.0,0.663,0.009
03/10/2022,10:01:05,0.515,1.0,0.671,0.008
03/10/2022,10:02:05,0.508,1.0,0.68,0.009
03/10/2022,10:03:05,0.512,1.0,0.688,0.008
03/10/2022,10:04:05,0.512,1.0,0.697,0.009
03/10/2022,10:05:05,0.517,1.0,0.706,0.009
03/10/2022,10:06:05,0.558,1.0,0.715,0.009
03/10/2022,10:07:05,0.556,1.0,0.724,0.009
03/10/2022,10:08:05,0.606,1.0,0.733,0.009
03/10/2022,10:09:05,0.665,2.0,0.744,0.011
03/10/2022,10:10:05,0.674,2.0,0.755,0.011
03/10/2022,10:11:05,0.706,2.0,0.767,0.012
03/10/2022,10:12:05,0.764,2.0,0.778,0.011